Weather History for PHNY - June, 2013

Change the Weather History Date:

Thursday, June 13, 2013

  Actual Average Record
Temperature  
Mean Temperature 74 °F -  
Max Temperature 82 °F 81 °F 87 °F (1993)
Min Temperature 66 °F 65 °F 57 °F (1955)
Cooling Degree Days 9    
Growing Degree Days 24 (Base 50)    
Moisture  
Dew Point 65 °F    
Average Humidity 75    
Maximum Humidity 90    
Minimum Humidity 52    
Precipitation  
Precipitation 0.00 in - - ()
Sea Level Pressure  
Sea Level Pressure 30.08 in    
Wind  
Wind Speed 10 mph (NE)    
Max Wind Speed 21 mph    
Max Gust Speed 21 mph    
Visibility 10 miles    
Events      
Averages and records for this station are not official NWS values.
T = Trace of Precipitation, MM = Missing Value Source: NWS Daily Summary

Daily Weather History Graph

Daily Weather History Graph

Search for Another Location

Airport or City:

Trip Planner

Search our weather history database for the weather conditions in past years. The results will help you decide how hot, cold, wet, or windy it might be!

Date:

Astronomy

Jun. 13, 2013 Rise Set
Actual Time 5:46 AM HST 7:09 PM HST
Civil Twilight 5:21 AM HST 7:34 PM HST
Nautical Twilight 4:52 AM HST 8:03 PM HST
Astronomical Twilight 4:21 AM HST 8:34 PM HST
Moon 10:05 AM HST (6/13) 10:54 PM HST (6/13)
Length of Visible Light 14h 12m
Length of Day
13h 23m
Waxing Crescent, 23% of the Moon is Illuminated
Jun 13
Waxing Crescent
Jun 16
First Quarter
Jun 23
Full
Jun 29
Last Quarter
Jul 7
New

Hourly Weather History & Observations

Time (HST) Temp. Heat Index Dew Point Humidity Pressure Visibility Wind Dir Wind Speed Gust Speed Precip Events Conditions
12:27 AM 68.0 °F - 64.4 °F 88% 30.13 in 10.0 mi NNE 9.2 mph - N/A   Scattered Clouds
12:56 AM 68.9 °F - 65.8 °F 90% 30.05 in 10.0 mi NNE 12.7 mph - N/A   Clear
1:56 AM 70.0 °F - 64.9 °F 84% 30.04 in 10.0 mi NNE 12.7 mph - N/A   Clear
2:56 AM 70.0 °F - 64.9 °F 84% 30.04 in 10.0 mi ENE 6.9 mph - N/A   Scattered Clouds
3:56 AM 68.9 °F - 64.9 °F 87% 30.04 in 10.0 mi NE 10.4 mph - N/A   Mostly Cloudy
4:56 AM 68.0 °F - 63.9 °F 87% 30.04 in 10.0 mi East 10.4 mph - N/A   Clear
5:56 AM 66.9 °F - 63.0 °F 87% 30.06 in 10.0 mi ENE 10.4 mph - N/A   Clear
6:56 AM 72.0 °F - 64.9 °F 78% 30.07 in 10.0 mi East 4.6 mph - N/A   Clear
7:56 AM 75.9 °F - 63.9 °F 66% 30.07 in 10.0 mi NE 15.0 mph - N/A   Clear
8:56 AM 79.0 °F - 63.9 °F 60% 30.07 in 10.0 mi NE 13.8 mph - N/A   Clear
9:56 AM 82.9 °F 84.2 °F 63.9 °F 52% 30.07 in 10.0 mi NE 17.3 mph 20.7 mph N/A   Partly Cloudy
10:56 AM 82.9 °F 85.0 °F 65.8 °F 56% 30.07 in 10.0 mi NE 13.8 mph - N/A   Clear
11:56 AM 77.9 °F - 64.9 °F 64% 30.08 in 10.0 mi Variable 5.8 mph - N/A   Mostly Cloudy
12:56 PM 77.9 °F - 65.8 °F 66% 30.07 in 10.0 mi Variable 3.5 mph - N/A   Mostly Cloudy
1:32 PM 82.4 °F 84.6 °F 66.2 °F 58% 30.13 in 10.0 mi Variable 5.8 mph - N/A   Scattered Clouds
1:56 PM 79.0 °F - 64.9 °F 62% 30.06 in 10.0 mi Variable 5.8 mph - N/A   Mostly Cloudy
2:56 PM 77.9 °F - 65.8 °F 66% 30.06 in 10.0 mi West 10.4 mph - N/A   Mostly Cloudy
3:16 PM 77.0 °F - 66.2 °F 69% 30.11 in 10.0 mi West 8.1 mph - N/A   Mostly Cloudy
3:56 PM 81.9 °F 83.5 °F 64.9 °F 56% 30.03 in 10.0 mi NNE 18.4 mph - N/A   Partly Cloudy
4:56 PM 79.9 °F - 66.9 °F 64% 30.04 in 10.0 mi NNE 20.7 mph - N/A   Clear
5:56 PM 77.0 °F - 66.9 °F 71% 30.04 in 10.0 mi NE 16.1 mph - N/A   Clear
6:56 PM 74.8 °F - 65.8 °F 73% 30.05 in 10.0 mi NE 12.7 mph - N/A   Mostly Cloudy
7:56 PM 72.9 °F - 65.8 °F 79% 30.07 in 10.0 mi NNE 11.5 mph 17.3 mph N/A   Mostly Cloudy
8:19 PM 71.6 °F - 66.2 °F 83% 30.14 in 10.0 mi NNE 11.5 mph - N/A   Scattered Clouds
8:56 PM 70.9 °F - 65.8 °F 84% 30.08 in 10.0 mi NNE 9.2 mph - N/A   Partly Cloudy
9:56 PM 70.9 °F - 65.8 °F 84% 30.09 in 10.0 mi NNE 8.1 mph - N/A   Scattered Clouds
10:40 PM 71.6 °F - 66.2 °F 83% 30.16 in 10.0 mi NNE 8.1 mph - N/A   Mostly Cloudy
10:56 PM 70.9 °F - 66.9 °F 87% 30.09 in 10.0 mi NNE 6.9 mph - N/A   Mostly Cloudy
11:05 PM 71.6 °F - 66.2 °F 83% 30.16 in 10.0 mi NNE 8.1 mph - N/A   Scattered Clouds
11:56 PM 70.0 °F - 66.9 °F 90% 30.09 in 10.0 mi NNE 6.9 mph - N/A   Scattered Clouds